Malaga, Spain

5:47 PM CEST on August 28, 2016 (GMT +0200)
Malaga

Weather History for LEMG - February, 2013

Change the Weather History Date:

Saturday, February 23, 2013

  Actual Average Record
Temperature  
Mean Temperature 54 °F -  
Max Temperature 61 °F 64 °F 74 °F (2016)
Min Temperature 47 °F 47 °F 39 °F (2006)
Degree Days  
Heating Degree Days 11    
Growing Degree Days 4 (Base 50)    
Moisture  
Dew Point 42 °F    
Average Humidity 65    
Maximum Humidity 93    
Minimum Humidity 27    
Precipitation  
Precipitation 0.00 in 0.08 in - ()
Sea Level Pressure  
Sea Level Pressure 29.80 in    
Wind  
Wind Speed 7 mph ()    
Max Wind Speed 24 mph    
Max Gust Speed 38 mph    
Visibility 6.9 miles    
Events Rain    
Averages and records for this station are not official NWS values.
T = Trace of Precipitation, MM = Missing Value Source: Averaged Metar Reports

Daily Weather History Graph

Daily Weather History Graph

Search for Another Location

Airport or City:

Trip Planner

Search our weather history database for the weather conditions in past years. The results will help you decide how hot, cold, wet, or windy it might be!

Date:

Astronomy

Feb. 23, 2013 Rise Set
Actual Time 7:56 AM CET 7:06 PM CET
Civil Twilight 7:30 AM CET 7:32 PM CET
Nautical Twilight 7:00 AM CET 8:02 PM CET
Astronomical Twilight 6:30 AM CET 8:32 PM CET
Moon 5:04 PM CET (2/23) 6:07 AM CET (2/23)
Length of Visible Light 12h 02m
Length of Day
11h 10m
Waxing Gibbous, 94% of the Moon is Illuminated
Feb 23
Waxing Gibbous
Feb 25
Full
Mar 4
Last Quarter
Mar 11
New
Mar 19
First Quarter

Hourly Weather History & Observations

Time (CET) Temp. Dew Point Humidity Pressure Visibility Wind Dir Wind Speed Gust Speed Precip Events Conditions
12:00 AM 53.6 °F 44.6 °F 72% 29.74 in 6.2 mi WNW 4.6 mph - N/A   Mostly Cloudy
12:30 AM 53.6 °F 46.4 °F 77% 29.74 in 6.2 mi Variable 2.3 mph - N/A   Scattered Clouds
1:00 AM 54 °F 45 °F 63% 29.76 in 12 mi WSW 6.9 mph - -   Partly Cloudy
1:00 AM 53.6 °F 44.6 °F 72% 29.74 in 6.2 mi WSW 6.9 mph - N/A   Partly Cloudy
1:30 AM 51.8 °F 42.8 °F 71% 29.74 in 6.2 mi WNW 4.6 mph - N/A   Partly Cloudy
2:00 AM 53.6 °F 41.0 °F 62% 29.74 in 6.2 mi WNW 9.2 mph - N/A   Partly Cloudy
2:30 AM 51.8 °F 41.0 °F 67% 29.74 in 6.2 mi WNW 3.5 mph - N/A   Scattered Clouds
3:00 AM 50.0 °F 41.0 °F 71% 29.74 in 6.2 mi Variable 2.3 mph - N/A   Scattered Clouds
3:30 AM 50.0 °F 42.8 °F 76% 29.74 in 6.2 mi NW 1.2 mph - N/A   Scattered Clouds
4:00 AM 50.0 °F 42.8 °F 76% 29.74 in 6.2 mi Variable 1.2 mph - N/A   Scattered Clouds
4:30 AM 48.2 °F 42.8 °F 82% 29.71 in 6.2 mi Calm Calm - N/A   Partly Cloudy
5:00 AM 48.2 °F 42.8 °F 82% 29.68 in 6.2 mi South 3.5 mph - N/A   Scattered Clouds
5:30 AM 50.0 °F 42.8 °F 76% 29.68 in 6.2 mi Variable 3.5 mph - N/A Rain Light Rain
5:49 AM 50.0 °F 44.6 °F 82% 29.68 in 6.2 mi West 4.6 mph - N/A Rain Rain
6:00 AM 48.2 °F 44.6 °F 87% 29.68 in 6.2 mi West 3.5 mph - N/A Rain Rain
6:20 AM 48.2 °F 44.6 °F 87% 29.68 in 6.2 mi NNW 3.5 mph - N/A   Mostly Cloudy
6:30 AM 48.2 °F 44.6 °F 87% 29.65 in 6.2 mi Calm Calm - N/A   Mostly Cloudy
7:00 AM 49 °F 46 °F 87% 29.68 in 12 mi 2.3 mph - - Rain Light Rain
7:00 AM 48.2 °F 46.4 °F 93% 29.65 in 6.2 mi Variable 2.3 mph - N/A Rain Light Rain
7:30 AM 48.2 °F 46.4 °F 93% 29.65 in 6.2 mi NNW 3.5 mph - N/A   Mostly Cloudy
8:00 AM 50.0 °F 46.4 °F 87% 29.65 in 6.2 mi NNW 8.1 mph - N/A   Mostly Cloudy
8:30 AM 50.0 °F 46.4 °F 87% 29.68 in 6.2 mi Variable 2.3 mph - N/A   Mostly Cloudy
9:00 AM 53.6 °F 46.4 °F 77% 29.68 in 6.2 mi Variable 1.2 mph - N/A   Mostly Cloudy
9:30 AM 53.6 °F 44.6 °F 72% 29.71 in 6.2 mi NW 10.4 mph 21.9 mph N/A   Mostly Cloudy
10:00 AM 55.4 °F 46.4 °F 72% 29.71 in 6.2 mi NW 15.0 mph 27.6 mph N/A   Mostly Cloudy
10:30 AM 53.6 °F 46.4 °F 77% 29.74 in 6.2 mi NW 16.1 mph 29.9 mph N/A   Mostly Cloudy
11:00 AM 55.4 °F 46.4 °F 72% 29.74 in 6.2 mi NW 18.4 mph - N/A   Mostly Cloudy
11:30 AM 55.4 °F 46.4 °F 72% 29.77 in 6.2 mi WNW 18.4 mph 35.7 mph N/A   Mostly Cloudy
12:00 PM 57.2 °F 44.6 °F 63% 29.77 in 6.2 mi WNW 16.1 mph 29.9 mph N/A   Mostly Cloudy
12:30 PM 57.2 °F 44.6 °F 63% 29.80 in 6.2 mi WNW 18.4 mph - N/A   Mostly Cloudy
1:00 PM 59 °F 40 °F 39% 29.80 in 19 mi WNW 21.9 mph - -   Partly Cloudy
1:00 PM 57.2 °F 44.6 °F 63% 29.77 in 6.2 mi WNW 21.9 mph 34.5 mph N/A   Scattered Clouds
1:30 PM 59.0 °F 42.8 °F 55% 29.80 in 6.2 mi WNW 24.2 mph 38.0 mph N/A   Scattered Clouds
2:00 PM 59.0 °F 44.6 °F 59% 29.80 in 6.2 mi WNW 23.0 mph 36.8 mph N/A   Scattered Clouds
2:30 PM 57.2 °F 42.8 °F 59% 29.80 in 6.2 mi WNW 20.7 mph 35.7 mph N/A   Scattered Clouds
3:00 PM 57.2 °F 41.0 °F 55% 29.83 in 6.2 mi WNW 18.4 mph 32.2 mph N/A   Scattered Clouds
3:30 PM 59.0 °F 42.8 °F 55% 29.83 in 6.2 mi WNW 16.1 mph 28.8 mph N/A   Scattered Clouds
4:00 PM 59.0 °F 41.0 °F 51% 29.83 in 6.2 mi WNW 16.1 mph 28.8 mph N/A   Scattered Clouds
4:30 PM 60.8 °F 39.2 °F 45% 29.86 in 6.2 mi WNW 16.1 mph 27.6 mph N/A   Scattered Clouds
5:00 PM 60.8 °F 37.4 °F 42% 29.86 in 6.2 mi WNW 16.1 mph - N/A   Scattered Clouds
5:30 PM 60.8 °F 37.4 °F 42% 29.86 in 6.2 mi NW 13.8 mph - N/A   Scattered Clouds
6:00 PM 59.0 °F 37.4 °F 45% 29.89 in 6.2 mi WNW 17.3 mph 31.1 mph N/A   Scattered Clouds
6:30 PM 57.2 °F 35.6 °F 44% 29.89 in 6.2 mi NW 13.8 mph 25.3 mph N/A   Scattered Clouds
7:00 PM 58 °F 33 °F 27% 29.93 in 19 mi WNW 6.9 mph - -   Scattered Clouds
7:00 PM 55.4 °F 35.6 °F 47% 29.92 in 6.2 mi WNW 6.9 mph - N/A   Partly Cloudy
7:30 PM 53.6 °F 37.4 °F 54% 29.92 in 6.2 mi WNW 6.9 mph - N/A   Partly Cloudy
8:00 PM 53.6 °F 37.4 °F 54% 29.95 in 6.2 mi West 5.8 mph - N/A   Partly Cloudy
8:30 PM 51.8 °F 37.4 °F 58% 29.95 in 6.2 mi WNW 8.1 mph - N/A   Partly Cloudy
9:00 PM 51.8 °F 35.6 °F 54% 29.98 in 6.2 mi WNW 10.4 mph - N/A   Partly Cloudy
9:30 PM 51.8 °F 35.6 °F 54% 29.98 in 6.2 mi WNW 11.5 mph - N/A   Partly Cloudy
10:00 PM 51.8 °F 35.6 °F 54% 30.01 in 6.2 mi WNW 11.5 mph - N/A   Partly Cloudy
10:30 PM 50.0 °F 35.6 °F 58% 30.01 in 6.2 mi WNW 10.4 mph - N/A   Partly Cloudy
11:00 PM 51.8 °F 33.8 °F 50% 30.04 in 6.2 mi West 11.5 mph - N/A   Partly Cloudy
11:30 PM 50.0 °F 33.8 °F 54% 30.04 in - WNW 11.5 mph - N/A   Clear